Mullan Pass, ID

1:17 PM PDT on October 16, 2019 (GMT -0700)
Mullan Pass

Weather History for KMLP - August, 2019

Change the Weather History Date:

Monday, August 5, 2019

  Actual Average (WUND) Record (WUND)
Temperature  
Mean Temperature 68 °F -  
Max Temperature 75 °F - - (-1)
Min Temperature 62 °F - - (-1)
Cooling Degree Days 4    
Growing Degree Days 18 (Base 50)    
Moisture  
Dew Point 28 °F    
Average Humidity 24    
Maximum Humidity 29    
Minimum Humidity 18    
Precipitation  
Precipitation 0.00 in - - ()
Sea Level Pressure  
Sea Level Pressure 29.93 in    
Wind  
Wind Speed 3 mph (NW)    
Max Wind Speed 7 mph    
Max Gust Speed -    
Visibility 10 miles    
Events      
Averages and records for this station are not official NWS values.
T = Trace of Precipitation, MM = Missing Value Source: NWS Daily Summary

Daily Weather History Graph

Daily Weather History Graph

Search for Another Location

Airport or City:

Astronomy

Aug. 05, 2019 Rise Set
Actual Time 5:25 AM PDT 8:10 PM PDT
Civil Twilight 4:50 AM PDT 8:46 PM PDT
Nautical Twilight 4:05 AM PDT 9:30 PM PDT
Astronomical Twilight 3:12 AM PDT 10:23 PM PDT
Moon 11:08 AM PDT (8/5) 11:01 PM PDT (8/5)
Length of Visible Light 15h 55m
Length of Day
14h 45m
Waxing Crescent, 29% of the Moon is Illuminated
Aug 5
Waxing Crescent
Aug 7
First Quarter
Aug 15
Full
Aug 23
Last Quarter
Aug 30
New

Hourly Weather History & Observations

Time (PDT) Temp. Dew Point Humidity Pressure Visibility Wind Dir Wind Speed Gust Speed Precip Events Conditions
12:53 AM 63.0 °F 21.0 °F 20% 29.92 in 10.0 mi North 3.5 mph - N/A   Clear
1:53 AM 64.0 °F 21.0 °F 19% 29.91 in 10.0 mi Calm Calm - N/A   Clear
2:53 AM 63.0 °F 19.9 °F 19% 29.91 in 10.0 mi West 3.5 mph - N/A   Clear
3:53 AM 62.1 °F 21.9 °F 21% 29.92 in 10.0 mi WNW 3.5 mph - N/A   Clear
4:53 AM 62.1 °F 23.0 °F 22% 29.92 in 10.0 mi WNW 3.5 mph - N/A   Clear
5:53 AM 62.1 °F 24.1 °F 23% 29.92 in 10.0 mi WNW 3.5 mph - N/A   Clear
6:53 AM 62.1 °F 28.0 °F 28% 29.94 in 10.0 mi WNW 3.5 mph - N/A   Clear
7:53 AM 63.0 °F 30.0 °F 29% 29.95 in 10.0 mi NW 3.5 mph - N/A   Clear
8:53 AM 64.9 °F 30.9 °F 28% 29.96 in 10.0 mi Calm Calm - N/A   Clear
9:53 AM 66.0 °F 33.1 °F 29% 29.97 in 10.0 mi NNW 5.8 mph - N/A   Clear
10:53 AM 69.1 °F 33.1 °F 26% 29.97 in 10.0 mi Variable 3.5 mph - N/A   Clear
11:53 AM 70.0 °F 30.0 °F 23% 29.97 in 10.0 mi Variable 3.5 mph - N/A   Clear
12:53 PM 73.0 °F 28.9 °F 20% 29.96 in 10.0 mi Variable 5.8 mph - N/A   Clear
1:53 PM 73.9 °F 30.9 °F 21% 29.94 in 10.0 mi Variable 6.9 mph - N/A   Clear
2:53 PM 75.0 °F 28.9 °F 18% 29.94 in 10.0 mi Variable 4.6 mph - N/A   Clear
3:53 PM 75.0 °F 28.9 °F 18% 29.93 in 10.0 mi Variable 4.6 mph - N/A   Clear
4:53 PM 75.0 °F 33.1 °F 22% 29.91 in 10.0 mi North - - N/A   Clear
5:53 PM 73.9 °F 34.0 °F 23% 29.91 in 10.0 mi Variable 3.5 mph - N/A   Clear
6:53 PM 70.0 °F 30.0 °F 23% 29.91 in 10.0 mi NW 6.9 mph - N/A   Clear
7:53 PM 66.0 °F 28.9 °F 25% 29.92 in 10.0 mi Variable 3.5 mph - N/A   Clear
8:53 PM 64.9 °F 30.0 °F 27% 29.93 in 10.0 mi NW 5.8 mph - N/A   Clear
9:53 PM 64.9 °F 30.0 °F 27% 29.91 in 10.0 mi NNW 4.6 mph - N/A   Mostly Cloudy
10:53 PM 64.0 °F 30.0 °F 28% 29.91 in 10.0 mi NW 3.5 mph - N/A   Overcast
11:53 PM 64.0 °F 30.9 °F 29% 29.90 in 10.0 mi Calm Calm - N/A   Overcast